Voltar ao catálogo

STARLINK-36989

AtivoComunicaçõesVLEO
NORAD 68277·PAYLOAD·🇺🇸 United States

Lançado Mar 19, 2026 de Vandenberg Space Force Base

Loading…

Próximas Passagens (próximas 24 horas)

TLE

AtualizadoSource: CelesTrak SupGP

Época: Sep 15, 2026, 03:09 UTC

1 68277C 26055R   26258.13173611  .00012948  00000+0  38259-3 0  2585
2 68277  53.1582 154.9084 0001251  86.1097  50.1238 15.34380907    17

Acompanhe STARLINK-36989 em tempo real com AllMySat

Download on the App Store